User: anonymous   Login
Location: Barcelona
(41.3830°N, 2.1830°E)
Time: 09:16:25
(UTC+01:00)
Language:

LilacSat-2 - Orbit

View from above orbital plane
View from above orbital plane
View from above satellite
View from above satellite

Ground track
Ground track

The orbit data is extracted from the following two-line orbital elements,

1 40908U 15049K   19321.81754616 +.00000189 +00000-0 +14009-4 0  9990
2 40908 097.4843 319.7565 0017105 040.9929 036.7384 15.13890891229820
Epoch (UTC): 17 November 2019 19:37:15
Eccentricity: 0.0017105
inclination: 97.4843°
perigee height: 512 km
apogee height: 536 km
right ascension of ascending node: 319.7565°
argument of perigee: 40.9929°
revolutions per day: 15.13890891
mean anomaly at epoch: 36.7384°
orbit number at epoch: 22982

The dashed part of the orbit path shows where the satellite is in the earth's shadow,  

DLR